Location: Masseube
(43.4298°N, 0.5781°E)
Time: 21:37:04
(UTC+00:00)

ATLAS 5 CENTAUR R/B - Visible Passes

Search period start: 18 November 2025 00:00
Search period end: 28 November 2025 00:00
Orbit: 375 x 1092 km, 63.3° (Epoch: 17 November)

Date Brightness Start Highest point End Pass type
(mag) Time Alt. Az. Time Alt. Az. Time Alt. Az.
18 Nov 4.0 17:51:27 10° WNW 17:55:36 30° WSW 18:00:31 10° S visible
19 Nov 2.8 17:02:47 10° NW 17:07:17 55° WSW 17:12:49 10° SSE visible
20 Nov 5.2 17:58:20 10° W 18:01:10 15° WSW 18:04:16 10° SSW visible
21 Nov 4.4 17:08:49 10° WNW 17:12:51 27° WSW 17:17:36 10° S visible
23 Nov 5.6 17:15:43 10° W 17:18:10 14° WSW 17:20:49 10° SW visible
24 Nov 4.1 06:07:14 10° SSE 06:08:57 14° ESE 06:10:41 10° E visible
26 Nov 2.1 06:11:06 10° SSW 06:13:55 40° ESE 06:16:52 10° NE visible
27 Nov 3.8 05:23:34 10° SSE 05:25:32 16° ESE 05:27:32 10° ENE visible
